[Iaude] MPEC G212: 2024 GE6 [a=1.02,e=0.02,i=6.2,H=24.5]
    mpec at cfa.harvard.edu 
    mpec at cfa.harvard.edu
       
    Mon Apr 15 02:57:32 EDT 2024
    
    
  
M.P.E.C. 2024-G212                               Issued 2024 April 15, 06:56 UT
     The Minor Planet Electronic Circulars contain information on unusual
         minor planets, routine data on comets and natural satellites,
         and occasional editorial announcements.  They are published
    on behalf of Division F of the International Astronomical Union by the
          Minor Planet Center, Smithsonian Astrophysical Observatory,
                          Cambridge, MA 02138, U.S.A.
			  
             Prepared using the Tamkin Foundation Computer Network
                              MPC at CFA.HARVARD.EDU
            URL https://www.minorplanetcenter.net/    ISSN 1523-6714
                                    2024 GE6                                    
Observations:
     K24G06E*1C2024 04 13.34138714 44 51.882+56 01 11.42         21.50GVEG212G96
     K24G06E 1C2024 04 13.34662714 44 50.330+56 01 06.64         21.31GVEG212G96
     K24G06E 1C2024 04 13.35187614 44 48.649+56 01 02.42         20.52GVEG212G96
     K24G06E 1C2024 04 13.35712814 44 46.972+56 00 57.06         21.69GVEG212G96
     K24G06E  C2024 04 13.40594214 44 31.164+56 00 03.13         21.2 GVEG212H01
     K24G06E KC2024 04 13.40666814 44 31.520+56 00 06.34         21.13GVEG212I52
     K24G06E KC2024 04 13.40942214 44 30.678+56 00 02.99         21.39GVEG212I52
     K24G06E  C2024 04 13.41081214 44 29.677+55 59 57.71         21.1 GVEG212H01
     K24G06E KC2024 04 13.41218014 44 29.778+56 00 00.43         21.15GVEG212I52
     K24G06E KC2024 04 13.41412814 44 29.180+55 59 58.38         20.97GVEG212I52
     K24G06E  C2024 04 13.42457814 44 25.448+55 59 41.88         21.1 GVEG212H01
     K24G06E  C2024 04 13.42911614 44 24.050+55 59 36.55         21.2 GVEG212H01
     K24G06E KC2024 04 13.46061314 44 14.950+55 59 03.08         21.75GVEG212I52
     K24G06E KC2024 04 13.46255914 44 14.370+55 59 00.71         21.78GVEG212I52
     K24G06E KC2024 04 13.46451414 44 13.758+55 58 58.37         22.04GVEG212I52
     K24G06E KC2024 04 13.46645314 44 13.200+55 58 55.92         21.49GVEG212I52
     K24G06E 7C2024 04 14.06604614 41 47.881+55 48 52.99         20.8 GVEG212Z84
     K24G06E 7C2024 04 14.07418914 41 45.363+55 48 44.01         21.6 GVEG212Z84
     K24G06E KC2024 04 14.21293914 41 19.111+55 45 58.25         21.49GVEG212I52
     K24G06E KC2024 04 14.21823314 41 17.570+55 45 53.71         21.97GVEG212I52
     K24G06E KC2024 04 14.22038414 41 16.876+55 45 52.16         21.07GVEG212I52
     K24G06E KC2024 04 14.22253214 41 16.310+55 45 51.55         21.14GVEG212I52
     K24G06E KC2024 04 15.25486114 36 47.12 +55 26 29.9          21.3 GVEG212H21
     K24G06E KC2024 04 15.26325114 36 44.54 +55 26 20.1          21.3 GVEG212H21
     K24G06E KC2024 04 15.26818914 36 42.93 +55 26 14.6          21.4 GVEG212H21
Observer details:
G96 Mt. Lemmon Survey.  Observer K. W. Wierzchos.  Measurers T. Beuden, V. F.
    Carvajal, D. Fay, J. B. Fazekas, D. C. Fuls, A. R. Gibbs, A. D. Grauer, H.
    Groeller, J. K. Hogan, R. A. Kowalski, S. M. Larson, G. J. Leonard, D.
    Rankin, R. L. Seaman, F. C. Shelly, K. W. Wierzchos.  1.5-m reflector +
    10K CCD.
H01 Magdalena Ridge Observatory, Socorro.  Observers W. H. Ryan, E. V. Ryan.
    Measurer W. H. Ryan.  2.4-m f/8.9 Ritchey-Chretien + CCD.
H21 Astronomical Research Observatory, Westfield.  Observer R. Holmes.
    Measurers T. Linder, R. Holmes, L. Horn.  0.76-m f/3.0 astrograph + CCD.
I52 Steward Observatory, Mt. Lemmon Station.  Observers V. F. Carvajal, D.
    Rankin.  Measurers T. Beuden, V. F. Carvajal, D. Fay, J. B. Fazekas, D. C.
    Fuls, A. R. Gibbs, A. D. Grauer, H. Groeller, J. K. Hogan, R. A. Kowalski,
    S. M. Larson, G. J. Leonard, D. Rankin, R. L. Seaman, F. C. Shelly, K. W.
    Wierzchos.  1.0-m prime focus + CCD.
Z84 Calar Alto-Schmidt.  Observers F. Ocana, R. Kresken, M. Micheli, L.
    Conversi.  Measurers F. Ocana, M. Micheli.  0.8-m f/3 Schmidt + CCD.
Orbital elements:
2024 GE6                                                 Earth MOID = 0.0161 AU
Epoch 2024 Mar. 31.0 TT = JDT 2460400.5                 MPC                     
M 124.96170              (2000.0)            P               Q                  
n   0.95142602     Peri.  354.86146     +0.44880534     -0.88797538             
a   1.0238100      Node    68.44028     +0.82368584     +0.36750163             
e   0.0217965      Incl.    6.19527     +0.34657669     +0.27648196             
P   1.04           H   24.59          G   0.15           U   7                  
Residuals in seconds of arc
240413 G96  0.2-  0.3-    240413 I52  0.0   0.5+    240414 I52  0.0   0.4+
240413 G96  0.5+  0.3-    240413 H01  0.1-  0.1-    240414 I52  0.1+  0.3-
240413 G96  0.2+  0.4+    240413 H01  0.2-  0.1-    240414 I52  0.4-  0.3-
240413 G96  0.1-  0.0     240413 I52  0.0   0.0     240414 I52  0.1+  0.7+
240413 H01  0.2-  0.1-    240413 I52  0.1+  0.0     240415 H21  0.1-  0.1+
240413 I52  0.2+  0.2+    240413 I52  0.1-  0.1+    240415 H21  0.3+  0.2-
240413 I52  0.3+  0.2-    240413 I52  0.1+  0.1+    240415 H21  0.1-  0.1-
240413 H01  0.1-  0.1-    240414 Z84  0.1-  0.2+
240413 I52  0.1-  0.3+    240414 Z84  0.1+  0.1+
Ephemeris:
2024 GE6                 a,e,i = 1.02, 0.02, 6                   q = 1.0015
Date    TT    R. A. (2000) Decl.     Delta      r    Elong.  Phase     V
2024 03 16    15 54 10.2 +55 40 29   0.1117  1.0321   106.5    67.5    22.3
...
2024 03 31    15 30 36.7 +57 16 48   0.1008  1.0369   109.5    65.3    22.0
...
2024 04 08    15 05 48.5 +57 00 55   0.09371 1.0392   111.4    63.8    21.8
...
2024 04 14    14 42 05.3 +55 49 31   0.08813 1.0407   113.1    62.5    21.6
2024 04 15    14 37 50.9 +55 31 06   0.08720 1.0409   113.4    62.2    21.6
2024 04 16    14 33 33.2 +55 10 36   0.08627 1.0411   113.7    62.0    21.6
...
2024 04 22    14 07 14.7 +52 20 24   0.08077 1.0424   115.5    60.5    21.4
...
2024 04 30    13 33 27.6 +46 11 38   0.07412 1.0439   117.8    58.6    21.1
...
2024 05 15    12 45 58.3 +26 57 52   0.06690 1.0456   119.7    57.1    20.9
A. U. Tomatic                (C) Copyright 2024 MPC           M.P.E.C. 2024-G212
    
    
More information about the Iaude
mailing list